Location: Bédeille
(43.0872°N, 1.1041°E)
Time: 03:17:22
(UTC+00:00)

Cosmos 1741 Rocket - Pass Details

Date: 03 February 2023
Orbit: 761 x 781 km, 74.0° (Epoch: 27 March)

Event Time Altitude Azimuth Distance (km) Brightness Sun altitude
Rises 18:28:56 0° 180° (S) 3,243 7.4 -14.6°
Reaches altitude 10° 18:31:22 10° 174° (S) 2,322 6.5 -15.1°
Maximum altitude 18:36:22 45° 103° (ESE) 1,059 4.3 -16.0°
Enters shadow 18:40:23 16° 37° (NE) 1,972 5.7 -16.7°
